Regional Weather Roundup
Issued by NWS

Home | Current Version | Previous Version | Text Only | Print | Product List | Glossary Off
Versions: 1 2 3 4 5 6 7 8 9 10 11 12 13 14 15 16 17 18 19 20 21 22 23 24 25 26 27 28 29 30 31 32 33 34 35 36 37 38 39 40 41 42 43 44 45 46 47 48 49 50

000
ASUS43 KFSD 230210
RWRSD

WEATHER ROUNDUP FOR SOUTH DAKOTA
NATIONAL WEATHER SERVICE SIOUX FALLS SD
900 PM CDT SUN APR 22 2018

NOTE: "FAIR" INDICATES FEW OR NO CLOUDS BELOW 12,000 FEET WITH NO
SIGNIFICANT WEATHER AND/OR OBSTRUCTIONS TO VISIBILITY.


SDZ001>005-009-010-012>017-230300-
NORTHWEST AND NORTH CENTRAL SOUTH DAKOTA

CITY           SKY/WX    TMP DP  RH WIND       PRES   REMARKS
BUFFALO          N/A     57  34  41 NE12      30.01R
FAITH            N/A     56  41  57 SE12      30.08R
MOBRIDGE       CLEAR     53  39  59 SE8       30.09R
$$

SDZ012>016-024>037-041>051-057-063-072>074-230300-
SOUTHWEST AND SOUTH CENTRAL SOUTH DAKOTA

CITY           SKY/WX    TMP DP  RH WIND       PRES   REMARKS
RAPID CTY ARPT CLEAR     52  39  61 E8        30.07R
PIERRE         CLEAR     52  40  63 SE9       30.12R
CUSTER         CLEAR     50  32  50 E5        30.12S
ELLSWORTH AFB  CLEAR    N/A N/A N/A SE8       30.08R
PHILIP         CLEAR     56  40  55 SE7       30.08S
PINE RIDGE     CLEAR     53  38  56 E6        30.08R
SPEARFISH      FAIR      54  37  54 E9        30.08R
WINNER         FAIR      51  39  63 SE9       30.14S
$$

SDZ004>011-016>023-039-040-230300-
NORTHEAST SOUTH DAKOTA

CITY           SKY/WX    TMP DP  RH WIND       PRES   REMARKS
ABERDEEN       CLEAR     51  35  54 S9        30.17R
WATERTOWN      CLEAR     48  39  71 SE8       30.20R
BROOKINGS      CLEAR     49  40  71 SE9       30.21S
SISSETON         N/A     48  40  73 S8        30.19R
$$

SDZ017-020-022-023-036>040-048>070-230300-
SOUTHEAST SOUTH DAKOTA

CITY           SKY/WX    TMP DP  RH WIND       PRES   REMARKS
SIOUX FALLS    PTCLDY    49  38  65 E5        30.20R
HURON          CLEAR     51  39  63 SE6       30.17S
CHAMBERLAIN    CLEAR     52  38  58 SE7       30.15S
MITCHELL       CLEAR     57  37  47 E5        30.18R
YANKTON        CLEAR     54  40  59 E8        30.18R
$$

ABBREVIATIONS USED IN REMARKS
   TC - TEMPERATURE IN CELSIUS
  WCI - WIND CHILL INDEX
   HX - HEAT INDEX
  VSB - VISIBILITY




USA.gov is the U.S. government's official web portal to all federal, state and local government web resources and services.